Location: Brunembert
(50.7122°N, 1.8935°E)
Time: 10:12:19
(UTC+00:00)

Meteor 2-1 Rocket - Pass Details

Date: 22 April 2021
Orbit: 828 x 909 km, 81.3° (Epoch: 05 May)

Event Time Altitude Azimuth Distance (km) Brightness Sun altitude
Rises 19:53:46 0° 192° (SSW) 3,487 7.2 -8.5°
Reaches altitude 10° 19:56:11 10° 193° (SSW) 2,561 6.5 -8.9°
Maximum altitude 20:02:04 85° 282° (WNW) 915 4.4 -9.6°
Drops below altitude 10° 20:08:02 10° 12° (NNE) 2,606 7.1 -10.4°
Sets 20:10:32 0° 13° (NNE) 3,553 7.8 -10.8°
